Location: Alafon
(8.4500°N, 4.2333°E)
Time: 06:39:20
(UTC+00:00)

N. Korean satellite - Pass Details

Date: 25 June 2021
Orbit: 451 x 497 km, 97.2° (Epoch: 27 July)

Event Time Altitude Azimuth Distance (km) Brightness Sun altitude
Rises 03:55:21 0° 41° (NE) 2,571 11.5 -21.2°
Reaches altitude 10° 03:58:16 10° 67° (ENE) 1,693 10.5 -20.6°
Maximum altitude 04:00:12 14° 99° (E) 1,465 9.7 -20.2°
Drops below altitude 10° 04:02:09 10° 132° (SE) 1,695 9.5 -19.8°
Sets 04:05:03 0° 158° (SSE) 2,576 10.2 -19.1°
